This demonstration page uses our WeatherBlox Daily Observations layout. Learn more.

Left ArrowRight Arrow

Hourly Observations for June 9, 2021

Temp ( °F °C ) Dew Point ( °F °C ) Humidity (%) Winds ( mph kmh ) Pressure ( in mb ) Visibility ( mi km ) Precip ( " mm )
12:53 am 00:53 Clear 70 21.1 68 20 93 93 Calm 30.13 1020 10 16 0.00 0.00
1:53 am 01:53 Clear 69 20.6 67 19.4 93 93 Calm 30.12 1020 10 16 0.00 0.00
2:53 am 02:53 Clear 68 20 66 18.9 93 93 Calm 30.11 1020 10 16 0.00 0.00
3:53 am 03:53 Clear 68 20 67 19.4 96 96 Calm 30.10 1019 10 16 0.00 0.00
4:53 am 04:53 Cloudy 69 20.6 67 19.4 93 93 Calm 30.11 1020 10 16 0.00 0.00
5:53 am 05:53 Cloudy 68 20 67 19.4 96 96 Calm 30.12 1020 10 16 0.00 0.00
6:35 am 06:35 Cloudy 69 20.6 67 19.4 93 93 Calm 30.13 1020 10 16 0.00 0.00
6:53 am 06:53 Mostly Cloudy 69 20.6 67 19.4 93 93 Calm 30.13 1020 10 16 0.00 0.00
7:53 am 07:53 Mostly Sunny 71 21.7 69 20.6 94 94 Calm 30.13 1020 10 16 0.00 0.00
8:40 am 08:40 Mostly Cloudy 74 23.3 70 21.1 88 88 SW 3 6 30.14 1021 10 16 0.00 0.00
8:53 am 08:53 Cloudy 74 23.3 70 21.1 88 88 SW 5 7 30.14 1021 10 16 0.00 0.00
9:53 am 09:53 Cloudy 75 23.9 70 21.1 84 84 WSW 6 9 30.16 1021 10 16 0.00 0.00
10:12 am 10:12 Mostly Cloudy 77 25 71 21.7 82 82 W 8 13 30.15 1021 10 16 0.00 0.00
10:53 am 10:53 Mostly Cloudy 77 25 70 21.1 79 79 W 8 13 30.16 1021 10 16 0.00 0.00
11:53 am 11:53 Cloudy 78 25.6 70 21.1 76 76 SSW 6 9 30.16 1021 10 16 0.00 0.00
12:53 pm 12:53 Cloudy 80 26.7 69 20.6 69 69 S 8 13 30.14 1021 10 16 0.00 0.00
1:53 pm 13:53 Partly Cloudy 84 28.9 67 19.4 57 57 VRB 7 11 30.12 1020 10 16 0.00 0.00
2:53 pm 14:53 Mostly Sunny 86 30 66 18.9 51 51 SSW 12 19 30.08 1019 10 16 0.00 0.00
3:53 pm 15:53 Mostly Cloudy 85 29.4 65 18.3 51 51 SW 8 13 30.08 1019 10 16 0.00 0.00
4:53 pm 16:53 Cloudy 74 23.3 69 20.6 85 85 N 5 7 30.09 1019 10 16 0.00 0.00
5:53 pm 17:53 Mostly Cloudy with Light Rain 73 22.8 69 20.6 87 87 Calm 30.05 1018 10 16 0.03 0.76
6:53 pm 18:53 Mostly Cloudy 76 24.4 69 20.6 79 79 Calm 30.05 1018 10 16 0.00 0.00
7:53 pm 19:53 Cloudy 76 24.4 70 21.1 82 82 Calm 30.06 1018 10 16 0.00 0.00
8:53 pm 20:53 Mostly Cloudy 74 23.3 70 21.1 88 88 Calm 30.05 1018 10 16 0.00 0.00
9:53 pm 21:53 Cloudy with Light Rain 73 22.8 69 20.6 87 87 SSW 5 7 30.06 1018 10 16 0.00 0.00
10:53 pm 22:53 Mostly Clear 72 22.2 69 20.6 91 91 S 6 9 30.07 1018 10 16 0.01 0.25
11:53 pm 23:53 Mostly Clear 71 21.7 68 20 90 90 SSW 3 6 30.06 1018 10 16 0.00 0.00

Powered by AerisWeather